Location: Sungai Bunut
(2.6333°N, 113.7333°E)
Time: 12:38:44
(UTC+00:00)

Ariane H10 - Pass Details

Date: 16 October 2021
Orbit: 396 x 35026 km, 4.6° (Epoch: 28 November)

Event Time Altitude Azimuth Distance (km) Brightness Sun altitude
Exits shadow 19:30:23 43° 88° (E) 1,508 4.2 -39.9°
Drops below altitude 10° 19:40:30 10° 86° (E) 6,179 7.8 -37.4°
Sets 19:52:59 0° 86° (E) 11,036 9.4 -34.3°
